EUTELSAT 7B

Last updated on Sun Jun 21 2026 00:03:05 GMT+0000 (Coordinated Universal Time)

1 39163U 13022A 26171.39337050 .00000043 00000+0 00000+0 0 9992 2 39163 0.0639 358.4630 0004439 38.2500 20.4962 1.00270344 47970
UTC large
Height (km)
Speed (km/s)
/
Latitude / Longitude
Inclination (degrees)
Orbital Period (minutes)
Azimuth
Elevation
Range (km)
Doppler Factor

Next 0 passes for location: London (51.5072 / 0.1276)

No passes found over London.
EUTELSAT 7B